GFSNIL_sfc_dewp_006.txt.gz
Dewpoint
26 26 23 19 19 17 18 18 17 18 18 17 18 19 19 22 23 19 23 21 22 23
20 19 18 16 17 18 15 12 15 16 15 15 16 16 16 17 17 18 19 21 22 21
14 13 13 14 12 12 12 13 14 13 13 13 14 14 14 17 17 16 16 17 17 17
13 12 11 10 10 10 11 11 12 12 12 12 12 12 13 13 13 13 13 14 14 17
13 12 10 9 10 10 9 11 11 12 12 13 14 14 13 13 13 13 13 14 16 18
13 12 11 11 11 11 11 11 13 13 14 14 16 15 14 14 13 15 16 18 19 20
12 12 12 13 13 14 13 13 14 15 15 17 16 16 15 14 16 18 19 21 22 21
14 14 14 15 15 15 15 15 16 15 16 17 16 14 16 17 19 20 21 22 22 22
14 13 14 15 14 14 15 15 15 15 17 20 13 23 24 23 19 20 21 21 22 20
13 13 14 13 12 13 12 13 14 14 14 13 12 22 24 24 18 20 21 21 20 18
12 11 11 11 11 11 12 13 14 14 13 12 11 21 22 24 19 21 21 21 20 19
9 10 10 10 10 11 13 14 14 12 11 10 9 20 22 22 19 19 20 20 21 22
10 10 8 9 10 13 15 14 12 11 10 14 8 19 23 22 18 18 20 21 23 27
9 8 8 10 13 15 15 13 12 10 8 8 12 16 24 25 19 20 21 23 24 23

GFSNIL_sfc_dewp_012.txt.gz
Dewpoint
23 23 21 19 18 17 16 16 15 15 14 14 14 16 16 18 19 17 19 17 18 20
19 18 17 16 16 15 14 13 13 13 12 13 14 14 14 16 16 16 17 18 19 19
15 14 13 13 11 11 11 11 12 12 13 13 14 14 14 16 18 16 17 17 16 17
12 12 11 10 10 10 10 11 11 12 14 14 15 15 15 15 16 16 16 16 18 20
12 11 10 10 10 11 10 12 12 14 15 15 16 16 16 16 17 16 16 17 19 21
12 11 11 11 11 12 12 12 14 15 16 16 18 18 17 17 17 16 17 19 21 22
12 12 12 13 13 14 14 14 15 16 16 17 17 17 17 17 18 18 19 21 23 22
14 14 14 14 14 14 14 14 15 15 16 17 16 11 19 19 19 19 19 20 21 22
15 14 15 14 13 13 14 13 14 15 17 18 13 23 25 23 19 18 18 19 20 21
15 13 13 12 11 12 11 13 15 15 15 14 13 23 25 26 20 19 19 19 20 20
14 12 11 11 10 10 11 14 15 15 14 13 12 23 25 27 21 20 20 20 20 21
10 10 9 9 8 10 12 15 15 14 13 12 12 22 25 25 21 20 20 21 21 24
11 9 8 8 10 12 14 14 14 12 11 16 11 20 25 24 20 20 21 21 26 28
9 8 7 10 13 14 14 14 12 11 11 11 13 17 25 25 21 21 23 26 23 21

GFSNIL_sfc_dewp_015.txt.gz
Dewpoint
25 25 23 22 20 18 17 17 15 14 13 13 14 15 15 18 18 17 18 16 17 19
21 20 19 16 16 16 15 13 12 12 12 13 14 15 15 16 16 17 17 18 18 18
16 15 15 14 12 12 11 11 12 12 13 14 15 15 15 17 18 17 18 18 17 17
13 12 11 10 10 10 11 11 12 13 14 15 15 16 16 16 16 17 17 17 17 19
12 11 10 10 10 11 10 12 13 14 15 15 16 17 16 16 17 17 17 17 19 20
12 11 11 11 12 12 12 13 14 15 15 16 18 17 17 16 17 18 18 19 20 20
12 12 12 13 13 14 13 14 14 15 15 17 17 16 15 18 19 19 19 20 21 21
14 14 15 14 14 14 14 13 14 15 16 17 15 11 21 22 21 19 18 19 20 21
16 15 15 14 13 13 13 13 15 15 16 16 12 22 26 25 23 20 19 19 20 20
16 14 14 12 11 11 11 14 15 14 14 13 13 23 25 27 23 21 21 20 20 20
15 13 12 10 9 9 12 14 14 14 13 13 12 24 25 27 21 21 21 21 21 21
11 10 9 8 8 10 13 14 14 13 12 11 13 23 25 25 21 20 20 21 21 24
11 9 7 8 11 12 14 13 13 12 12 17 13 21 25 24 20 20 21 25 26 26
9 8 8 12 13 14 13 12 12 12 13 13 15 19 25 25 21 20 22 20 21 21

GFSNIL_sfc_dewp_018.txt.gz
Dewpoint
26 26 24 24 21 18 17 17 15 14 13 13 15 15 15 18 18 17 18 16 17 18
24 24 22 19 17 17 16 13 12 12 13 14 15 15 15 16 16 17 17 18 18 18
19 17 16 15 14 13 12 12 12 13 14 15 15 16 16 17 18 17 18 18 18 17
15 14 12 11 11 11 11 12 13 14 14 15 15 16 16 15 16 17 18 18 18 19
12 11 10 10 11 11 11 13 14 15 15 15 16 16 15 15 17 18 18 19 19 19
12 11 11 11 12 12 13 14 14 15 15 16 17 15 14 16 18 19 19 19 20 20
12 12 12 13 13 14 14 13 14 15 15 16 15 14 14 20 21 20 19 20 20 20
14 15 15 15 15 15 14 14 15 15 15 15 14 10 21 23 22 21 20 20 20 20
16 16 16 14 14 13 14 14 15 14 15 15 12 22 26 25 23 21 20 20 20 21
16 15 15 13 12 12 12 14 14 14 13 12 13 23 26 26 23 21 21 21 21 21
16 13 12 10 10 11 12 14 14 13 13 12 12 24 25 26 22 21 21 21 21 21
13 11 10 9 10 12 13 14 13 12 12 12 14 24 25 25 22 20 20 21 21 23
12 9 8 10 12 13 14 12 12 12 13 18 14 22 25 24 21 20 20 21 23 26
9 8 11 13 13 13 12 12 13 14 15 15 17 20 25 25 21 20 21 20 23 23